Location: Ferintosh
(52.7647°N, 112.9692°W)
Time: 08:59:29
(UTC+00:00)

Transit 2A Rocket - Pass Details

Date: 19 May 2024
Orbit: 583 x 910 km, 66.7° (Epoch: 13 June)

Event Time Altitude Azimuth Distance (km) Brightness Sun altitude
Rises 10:39:08 0° 152° (SSE) 2,980 7.9 -6.4°
Reaches altitude 10° 10:43:10 10° 117° (ESE) 2,159 7.6 -6.0°
Maximum altitude 10:44:29 11° 101° (E) 2,119 7.8 -5.8°
Drops below altitude 10° 10:45:50 10° 86° (E) 2,221 8.2 -5.7°
Sets 10:50:13 0° 52° (NE) 3,250 11.0 -5.2°
